| time (UTC) | temp F | wind direction | speed MPH | gust MPH | rain 1hr in | rain 24hr in | rain mn in | humidity % | barometer mb |
| 20260503213035 | 63 | 1 | 4.0 | 7.0 | 0.00 | 0.00 | 0.00 | 32 | 1014.2 |
| 20260503211529 | 62 | 358 | 4.0 | 13.0 | 0.00 | 0.00 | 0.00 | 32 | 1014.2 |
| 20260503210028 | 63 | 282 | 4.0 | 9.0 | 0.00 | 0.00 | 0.00 | 30 | 1014.0 |
| 20260503204528 | 62 | 288 | 3.0 | 9.0 | 0.00 | 0.00 | 0.00 | 32 | 1014.0 |
| 20260503203034 | 61 | 258 | 4.0 | 11.0 | 0.00 | 0.00 | 0.00 | 32 | 1014.1 |
| 20260503201531 | 62 | 283 | 3.0 | 7.0 | 0.00 | 0.00 | 0.00 | 33 | 1014.3 |
| 20260503200033 | 62 | 297 | 5.0 | 10.0 | 0.00 | 0.00 | 0.00 | 34 | 1014.3 |
| 20260503194531 | 62 | 279 | 5.0 | 10.0 | 0.00 | 0.00 | 0.00 | 33 | 1014.3 |
| 20260503193033 | 61 | 303 | 5.0 | 9.0 | 0.00 | 0.00 | 0.00 | 35 | 1014.5 |
| 20260503191528 | 61 | 6 | 5.0 | 11.0 | 0.00 | 0.00 | 0.00 | 35 | 1014.9 |
| 20260503190028 | 60 | 269 | 3.0 | 11.0 | 0.00 | 0.00 | 0.00 | 38 | 1014.8 |
| 20260503184529 | 60 | 307 | 5.0 | 9.0 | 0.00 | 0.00 | 0.00 | 38 | 1015.0 |
| 20260503183035 | 59 | 321 | 6.0 | 11.0 | 0.00 | 0.00 | 0.00 | 38 | 1015.1 |
| 20260503181601 | 60 | 297 | 3.0 | 11.0 | 0.00 | 0.00 | 0.00 | 38 | 1015.1 |
| 20260503180029 | 59 | 279 | 3.0 | 12.0 | 0.00 | 0.00 | 0.00 | 39 | 1015.1 |
| 20260503174529 | 58 | 311 | 6.0 | 13.0 | 0.00 | 0.02 | 0.00 | 39 | 1015.3 |
| 20260503173042 | 58 | 308 | 4.0 | 13.0 | 0.00 | 0.02 | 0.00 | 39 | 1015.4 |
| 20260503171528 | 57 | 282 | 6.0 | 15.0 | 0.00 | 0.02 | 0.00 | 41 | 1015.6 |
| 20260503081527 | 50 | 330 | 0.0 | 1.0 | 0.00 | 0.09 | 0.00 | 70 | 1011.7 |
| 20260503071531 | 49 | 0 | 1.0 | 3.0 | 0.00 | 0.09 | 0.00 | 72 | 1011.1 |
| 20260503054527 | 51 | 0 | 0.0 | 2.0 | 0.00 | 0.09 | 0.00 | 64 | 1010.4 |
| 20260503053036 | 52 | 285 | 1.0 | 3.0 | 0.00 | 0.09 | 0.00 | 63 | 1010.7 |
| 20260503051530 | 53 | 0 | 0.0 | 5.0 | 0.00 | 0.09 | 0.00 | 62 | 1010.8 |
| 20260503050027 | 53 | 281 | 2.0 | 4.0 | 0.00 | 0.09 | 0.00 | 60 | 1010.7 |
| 20260503044559 | 54 | 309 | 3.0 | 6.0 | 0.00 | 0.09 | 0.00 | 62 | 1010.8 |
| 20260503043026 | 54 | 285 | 1.0 | 5.0 | 0.00 | 0.09 | 0.00 | 63 | 1010.7 |
| 20260503041528 | 54 | 315 | 1.0 | 4.0 | 0.00 | 0.09 | 0.00 | 64 | 1010.7 |
| 20260503040031 | 54 | 0 | 1.0 | 5.0 | 0.00 | 0.09 | 0.00 | 64 | 1010.8 |
| 20260503034529 | 54 | 336 | 1.0 | 3.0 | 0.00 | 0.09 | 0.09 | 63 | 1010.8 |
| 20260503033029 | 54 | 309 | 1.0 | 5.0 | 0.00 | 0.09 | 0.09 | 62 | 1010.6 |
| 20260503031530 | 54 | 318 | 1.0 | 6.0 | 0.00 | 0.09 | 0.09 | 61 | 1010.6 |
| 20260503030032 | 54 | 284 | 0.0 | 1.0 | 0.00 | 0.09 | 0.09 | 62 | 1010.5 |
| 20260503024528 | 55 | 283 | 0.0 | 3.0 | 0.00 | 0.09 | 0.09 | 60 | 1010.7 |
| 20260503023027 | 55 | 0 | 0.0 | 4.0 | 0.00 | 0.09 | 0.09 | 59 | 1010.8 |
| 20260503021526 | 55 | 0 | 0.0 | 4.0 | 0.00 | 0.09 | 0.09 | 59 | 1010.7 |
| 20260503020034 | 55 | 314 | 1.0 | 3.0 | 0.00 | 0.09 | 0.09 | 59 | 1010.7 |
| 20260503014530 | 55 | 311 | 1.0 | 4.0 | 0.00 | 0.09 | 0.09 | 58 | 1010.7 |
| 20260503013028 | 55 | 53 | 1.0 | 5.0 | 0.00 | 0.09 | 0.09 | 58 | 1010.3 |
| 20260503011532 | 55 | 0 | 1.0 | 4.0 | 0.00 | 0.09 | 0.09 | 58 | 1010.3 |
| 20260503010032 | 55 | 41 | 1.0 | 4.0 | 0.00 | 0.09 | 0.09 | 57 | 1010.4 |
| 20260503004530 | 55 | 316 | 1.0 | 4.0 | 0.00 | 0.09 | 0.09 | 58 | 1010.3 |
| 20260503003035 | 55 | 0 | 1.0 | 6.0 | 0.00 | 0.09 | 0.09 | 58 | 1010.0 |
| 20260503001528 | 55 | 341 | 2.0 | 9.0 | 0.00 | 0.09 | 0.09 | 57 | 1009.9 |
| 20260503000035 | 55 | 35 | 2.0 | 7.0 | 0.00 | 0.09 | 0.09 | 56 | 1009.8 |
| 20260502234546 | 55 | 270 | 2.0 | 8.0 | 0.00 | 0.09 | 0.09 | 52 | 1009.6 |
| 20260502233030 | 55 | 0 | 1.0 | 6.0 | 0.00 | 0.09 | 0.09 | 50 | 1009.5 |
| 20260502231532 | 55 | 352 | 1.0 | 12.0 | 0.00 | 0.09 | 0.09 | 50 | 1009.5 |
| 20260502230030 | 55 | 265 | 2.0 | 7.0 | 0.00 | 0.09 | 0.09 | 53 | 1009.5 |
| 20260502224529 | 55 | 250 | 1.0 | 7.0 | 0.00 | 0.09 | 0.09 | 54 | 1009.5 |
| 20260502223036 | 55 | 0 | 0.0 | 8.0 | 0.00 | 0.09 | 0.09 | 54 | 1009.7 |
| 20260502221527 | 55 | 299 | 1.0 | 13.0 | 0.00 | 0.09 | 0.09 | 52 | 1009.8 |
| 20260502220034 | 55 | 304 | 4.0 | 12.0 | 0.00 | 0.09 | 0.09 | 53 | 1009.8 |
| 20260502214527 | 56 | 55 | 1.0 | 7.0 | 0.00 | 0.09 | 0.09 | 56 | 1009.6 |